Weather History for CWEC - October, 2013

Change the Weather History Date:

Saturday, October 12, 2013

  Actual Average Record
Temperature  
Mean Temperature 58 °F -  
Max Temperature 61 °F - - ()
Min Temperature 53 °F - - ()
Degree Days  
Heating Degree Days 8    
Growing Degree Days 8 (Base 50)    
Moisture  
Dew Point 48 °F    
Average Humidity 71    
Maximum Humidity 87    
Minimum Humidity 49    
Precipitation  
Precipitation 0.01 in - - ()
Sea Level Pressure  
Sea Level Pressure 29.77 in    
Wind  
Wind Speed 14 mph ()    
Max Wind Speed 26 mph    
Max Gust Speed 25 mph    
T = Trace of Precipitation, MM = Missing Value Source: Averaged Metar Reports

Daily Weather History Graph

Daily Weather History Graph

Search for Another Location

Airport or City:

Trip Planner

Search our weather history database for the weather conditions in past years. The results will help you decide how hot, cold, wet, or windy it might be!

Date:

Astronomy

Oct. 12, 2013 Rise Set
Actual Time 8:12 AM EDT 7:12 PM EDT
Civil Twilight 7:40 AM EDT 7:44 PM EDT
Nautical Twilight 7:04 AM EDT 8:20 PM EDT
Astronomical Twilight 6:28 AM EDT 8:56 PM EDT
Moon 3:49 PM EDT (10/12) 12:46 AM EDT (10/12)
Length of Visible Light 12h 03m
Length of Day
11h 00m
First Quarter, 58% of the Moon is Illuminated
Oct 12
First Quarter
Oct 18
Full
Oct 26
Last Quarter
Nov 3
New
Nov 10
First Quarter

Hourly Weather History & Observations

Time (EDT) Temp. Dew Point Humidity Pressure Visibility Wind Dir Wind Speed Gust Speed Precip Events Conditions
12:00 AM 57.2 °F 51.1 °F 80% 29.81 in - SE 26.5 mph - N/A   Unknown
1:00 AM 56.5 °F 50.0 °F 79% 29.81 in - SE 20.7 mph - N/A   Unknown
2:00 AM 56 °F 50 °F 73% 29.81 in - SE 19.6 mph - -  
2:00 AM 56.1 °F 50.0 °F 80% 29.81 in - SE 19.6 mph - N/A   Unknown
3:00 AM 54.7 °F 50.9 °F 87% 29.80 in - ESE 15.0 mph - N/A   Unknown
4:00 AM 55.9 °F 50.4 °F 82% 29.77 in - ESE 17.3 mph - N/A   Unknown
5:00 AM 54.9 °F 50.7 °F 86% 29.76 in - ENE 10.4 mph - N/A   Unknown
6:00 AM 57.2 °F 50.4 °F 78% 29.73 in - SE 16.1 mph - N/A   Unknown
7:00 AM 56.3 °F 50.5 °F 81% 29.73 in - ESE 11.5 mph - N/A   Unknown
8:00 AM 59 °F 51 °F 66% 29.73 in - SSE 10.4 mph - -  
8:00 AM 58.6 °F 50.5 °F 74% 29.73 in - SSE 9.2 mph - N/A   Unknown
9:00 AM 59.0 °F 51.4 °F 76% 29.72 in - SSE 8.1 mph - N/A   Unknown
10:00 AM 61.5 °F 52.2 °F 71% 29.72 in - South 5.8 mph - N/A   Unknown
11:00 AM 59.9 °F 51.6 °F 74% 29.73 in - South 12.7 mph 23.0 mph N/A   Unknown
12:00 PM 56.8 °F 50.0 °F 78% 29.73 in - South 10.4 mph 17.3 mph N/A   Unknown
1:00 PM 58.3 °F 49.6 °F 73% 29.73 in - South 10.4 mph 17.3 mph N/A   Unknown
2:00 PM 57 °F 47 °F 60% 29.74 in - South 12.7 mph - -  
2:00 PM 56.7 °F 46.9 °F 70% 29.74 in - South 12.7 mph - N/A   Unknown
3:00 PM 60.1 °F 47.1 °F 62% 29.73 in - South 12.7 mph - N/A   Unknown
4:00 PM 61.5 °F 42.3 °F 49% 29.74 in - SW 16.1 mph 24.2 mph 0.01 in   Unknown
5:00 PM 58.6 °F 43.0 °F 56% 29.77 in - SSW 13.8 mph 20.7 mph N/A   Unknown
6:00 PM 57.6 °F 43.0 °F 58% 29.78 in - South 15.0 mph 25.3 mph N/A   Unknown
7:00 PM 54.9 °F 46.6 °F 74% 29.80 in - South 12.7 mph - N/A   Unknown
8:00 PM 56 °F 44 °F 55% 29.82 in - SSW 12.7 mph - -  
8:00 PM 55.8 °F 44.4 °F 66% 29.82 in - SSW 11.5 mph 21.9 mph N/A   Unknown
9:00 PM 55.2 °F 43.7 °F 65% 29.83 in - SSW 12.7 mph 18.4 mph N/A   Unknown
10:00 PM 54.3 °F 45.0 °F 71% 29.84 in - SSW 8.1 mph - N/A   Unknown
11:00 PM 53.4 °F 44.4 °F 72% 29.85 in - SW 9.2 mph - N/A   Unknown